EW6571 Weather Reports


Display with metric or nautical units.
time (UTC)temp
F
wind
direction
speed
MPH
gust
MPH
rain 1hr
in
rain 24hr
in
rain mn
in
humidity
%
barometer
mb
20260902150015 60 98 4.0 8.0 0.00 0.07 0.07 68 1005.3
20260902144511 59 102 1.0 6.0 0.00 0.22 0.07 71 1005.2
20260902143009 57 115 1.0 3.0 0.00 0.22 0.07 78 1005.4
20260902141505 55 115 1.0 4.0 0.00 0.22 0.07 77 1005.5
20260902140004 54 130 2.0 7.0 0.00 0.22 0.07 83 1005.6
20260902134506 51 191 0.0 3.0 0.00 0.22 0.07 88 1005.7
20260902133003 50 191 2.0 4.0 0.00 0.22 0.07 88 1005.8
20260902131503 48 191 2.0 5.0 0.00 0.22 0.07 92 1005.7
20260902130001 47 215 1.0 4.0 0.00 0.22 0.07 91 1005.8
20260902124559 48 215 2.0 4.0 0.00 0.22 0.07 90 1005.7
20260902124502 48 215 2.0 4.0 0.00 0.22 0.07 90 1005.8
20260902123100 49 215 0.0 4.0 0.00 0.22 0.07 90 1005.6
20260902121555 48 229 3.0 5.0 0.00 0.22 0.07 91 1005.6
20260902120058 49 229 1.0 5.0 0.00 0.22 0.07 89 1005.5
20260902114551 49 236 2.0 4.0 0.00 0.25 0.07 88 1005.6
20260902113048 50 236 0.0 4.0 0.00 0.25 0.07 85 1005.6
20260902111549 52 132 1.0 6.0 0.00 0.25 0.07 81 1005.6
20260902110044 54 181 2.0 8.0 0.00 0.25 0.07 80 1005.7
20260902104544 53 181 6.0 11.0 0.00 0.26 0.07 83 1005.4
20260902103043 53 171 3.0 9.0 0.03 0.26 0.07 83 1005.4
20260902101542 52 119 5.0 10.0 0.03 0.26 0.07 86 1005.6
20260902100041 52 99 5.0 13.0 0.03 0.26 0.07 86 1005.6
20260902094539 53 114 2.0 11.0 0.04 0.26 0.07 82 1006.4
20260902093040 55 196 5.0 8.0 0.03 0.23 0.04 77 1005.7
20260902091540 53 137 4.0 10.0 0.03 0.23 0.04 81 1005.4
20260902090036 53 160 4.0 11.0 0.03 0.23 0.04 84 1005.4
20260902084536 53 100 5.0 8.0 0.03 0.22 0.03 85 1005.9
20260902083032 54 194 8.0 18.0 0.01 0.20 0.01 82 1007.5
20260902081531 54 117 4.0 10.0 0.01 0.20 0.01 83 1005.9
20260902080028 55 98 4.0 9.0 0.01 0.20 0.01 79 1007.1
20260902074529 56 132 2.0 8.0 0.00 0.19 0.00 74 1007.5
20260902073026 57 185 2.0 5.0 0.00 0.19 0.00 69 1007.0
20260902071525 57 223 6.0 12.0 0.00 0.19 0.00 69 1006.9
20260902070021 58 111 1.0 8.0 0.00 0.19 0.00 65 1005.6
20260902064523 57 93 5.0 8.0 0.00 0.19 0.00 69 1005.6
20260902063026 57 197 3.0 7.0 0.00 0.19 0.00 70 1005.9
20260902061516 54 206 4.0 11.0 0.00 0.19 0.00 79 1005.7
20260902060008 52 230 1.0 4.0 0.00 0.19 0.00 83 1005.5
20260902054515 52 230 1.0 2.0 0.00 0.19 0.19 82 1005.6
20260902053006 52 230 0.0 2.0 0.00 0.19 0.19 82 1005.7
20260902051505 52 230 2.0 5.0 0.00 0.19 0.19 81 1005.6
20260902050006 53 231 2.0 5.0 0.00 0.19 0.19 81 1005.6
20260902044512 53 231 3.0 5.0 0.00 0.19 0.19 80 1005.5
20260902043003 54 177 2.0 5.0 0.00 0.19 0.19 78 1005.3
20260902041502 55 177 3.0 5.0 0.00 0.19 0.19 76 1005.1
20260902040004 56 177 2.0 4.0 0.00 0.19 0.19 72 1005.3
20260902034502 58 177 1.0 4.0 0.00 0.19 0.19 66 1005.2
20260902033005 57 201 0.0 4.0 0.00 0.19 0.19 72 1005.0
20260902031503 56 207 1.0 5.0 0.00 0.19 0.19 73 1004.8
20260902030001 56 207 2.0 5.0 0.00 0.19 0.19 73 1005.0
20260902024600 56 207 4.0 5.0 0.00 0.19 0.19 74 1004.8
20260902023103 58 207 3.0 5.0 0.00 0.19 0.19 72 1004.6
20260902021606 60 207 2.0 5.0 0.00 0.19 0.19 68 1004.6
20260902020059 64 207 1.0 3.0 0.00 0.19 0.19 56 1004.5
20260902014559 64 207 1.0 2.0 0.00 0.19 0.19 53 1004.5
20260902013100 64 194 3.0 6.0 0.00 0.19 0.19 56 1004.2
20260902011557 65 230 2.0 11.0 0.00 0.19 0.19 53 1004.0
20260902010059 63 247 4.0 7.0 0.00 0.19 0.19 72 1003.9
20260902004600 64 250 2.0 5.0 0.00 0.19 0.19 69 1003.9
20260902003129 66 252 3.0 5.0 0.00 0.19 0.19 66 1004.1
20260902001555 68 274 2.0 4.0 0.00 0.19 0.19 60 1004.0
20260902000058 71 274 1.0 3.0 0.00 0.19 0.19 51 1003.9
20260901234554 72 274 4.0 9.0 0.00 0.19 0.19 39 1004.0
20260901233053 73 290 4.0 8.0 0.00 0.19 0.19 39 1004.0
20260901231600 73 254 2.0 9.0 0.00 0.19 0.19 39 1004.0
20260901230049 73 296 2.0 11.0 0.00 0.19 0.19 42 1004.2
20260901224550 73 246 4.0 7.0 0.00 0.19 0.19 45 1004.3
20260901223044 71 223 2.0 5.0 0.00 0.19 0.19 44 1004.5
20260901221545 72 265 3.0 8.0 0.00 0.19 0.19 45 1004.6
20260901220047 72 295 4.0 9.0 0.00 0.19 0.19 45 1004.7
20260901214543 72 237 1.0 8.0 0.00 0.19 0.19 46 1004.9
20260901213038 72 268 6.0 9.0 0.00 0.19 0.19 48 1005.0
20260901211535 71 228 4.0 9.0 0.00 0.19 0.19 49 1005.3
20260901210035 70 275 0.0 6.0 0.00 0.19 0.19 50 1005.5
20260901204533 70 92 1.0 8.0 0.00 0.19 0.19 49 1005.5
20260901203037 70 213 1.0 7.0 0.00 0.19 0.19 51 1005.6
20260901201529 70 300 2.0 7.0 0.00 0.19 0.19 50 1005.8
20260901200025 69 262 1.0 7.0 0.00 0.19 0.19 52 1005.9
20260901194522 69 77 3.0 8.0 0.00 0.19 0.19 56 1006.1
20260901193022 68 72 2.0 8.0 0.00 0.19 0.19 56 1006.2
20260901191528 68 140 1.0 5.0 0.00 0.19 0.19 57 1006.4
20260901190018 66 73 3.0 5.0 0.00 0.19 0.19 60 1006.7
20260901184515 67 84 2.0 4.0 0.00 0.19 0.19 62 1006.8
20260901183013 66 355 2.0 4.0 0.00 0.19 0.19 62 1006.9
20260901181512 65 325 2.0 5.0 0.00 0.19 0.19 66 1007.1
20260901180008 64 5 1.0 6.0 0.00 0.19 0.19 71 1007.2
20260901174505 63 326 2.0 5.0 0.00 0.19 0.19 72 1007.3
20260901173003 62 69 1.0 6.0 0.00 0.19 0.19 74 1007.4
20260901171503 60 67 1.0 3.0 0.00 0.19 0.19 79 1007.5
20260901170106 59 232 1.0 4.0 0.00 0.19 0.19 83 1007.6
20260901164614 57 232 0.0 3.0 0.00 0.19 0.19 84 1007.8
20260901163115 57 232 0.0 2.0 0.00 0.19 0.19 84 1007.8
20260901161558 56 232 0.0 3.0 0.00 0.19 0.19 90 1007.8
20260901160056 55 232 1.0 3.0 0.00 0.19 0.19 91 1007.9
20260901154557 55 232 1.0 3.0 0.00 0.19 0.19 91 1007.9
20260901153053 55 130 0.0 1.0 0.00 0.19 0.19 93 1008.1
20260901151552 54 130 1.0 4.0 0.07 0.19 0.19 94 1008.0